Total_Precipitation_Accumulation
0.00 0.00 0.00 0.03 0.11 0.06 0.02 0.00 0.04 0.11 0.09 0.04 0.03 0.06 0.04 0.03 0.03 0.00 0.00 0.00 0.00 0.00 0.00 0.00 0.00 0.00 0.00 0.00 0.00 0.00 0.08 0.07 0.01 0.00 0.01 0.01 0.05 0.03 0.02 0.01 0.00 0.00 0.00 0.02
0.00 0.00 0.00 0.01 0.01 0.01 0.01 0.01 0.01 0.09 0.11 0.25 0.12 0.20 0.13 0.02 0.00 0.01 0.05 0.04 0.01 0.00 0.00 0.00 0.00 0.00 0.00 0.00 0.00 0.01 0.11 0.12 0.02 0.00 0.00 0.02 0.03 0.07 0.03 0.07 0.03 0.00 0.02 0.01
0.00 0.00 0.00 0.00 0.00 0.00 0.00 0.01 0.01 0.09 0.15 0.24 0.43 0.46 0.24 0.12 0.07 0.00 0.05 0.08 0.03 0.04 0.00 0.00 0.00 0.00 0.00 0.00 0.00 0.00 0.06 0.17 0.07 0.00 0.01 0.06 0.09 0.09 0.17 0.14 0.17 0.02 0.02 0.00
0.00 0.00 0.00 0.00 0.00 0.00 0.00 0.00 0.00 0.00 0.01 0.15 0.09 0.13 0.13 0.15 0.12 0.05 0.01 0.02 0.02 0.04 0.01 0.02 0.00 0.00 0.00 0.00 0.00 0.00 0.03 0.05 0.05 0.03 0.01 0.04 0.09 0.20 0.17 0.08 0.09 0.14 0.18 0.02
0.00 0.00 0.00 0.00 0.00 0.00 0.00 0.00 0.00 0.00 0.02 0.02 0.05 0.03 0.06 0.03 0.15 0.21 0.07 0.03 0.03 0.03 0.03 0.02 0.01 0.00 0.00 0.00 0.00 0.00 0.02 0.10 0.20 0.03 0.07 0.05 0.01 0.02 0.02 0.02 0.12 0.13 0.29 0.09
0.00 0.00 0.00 0.00 0.00 0.00 0.00 0.00 0.00 0.01 0.06 0.06 0.05 0.05 0.06 0.06 0.13 0.42 0.13 0.05 0.03 0.04 0.01 0.01 0.01 0.00 0.00 0.00 0.00 0.00 0.01 0.12 0.26 0.05 0.05 0.09 0.05 0.05 0.03 0.08 0.07 0.05 0.03 0.02
0.00 0.00 0.00 0.00 0.00 0.00 0.00 0.00 0.00 0.01 0.06 0.15 0.02 0.05 0.06 0.00 0.01 0.28 0.34 0.01 0.01 0.03 0.01 0.01 0.01 0.00 0.00 0.00 0.00 0.00 0.00 0.02 0.07 0.09 0.06 0.06 0.07 0.08 0.05 0.05 0.02 0.07 0.09 0.11
0.00 0.00 0.00 0.00 0.00 0.00 0.00 0.00 0.00 0.00 0.01 0.01 0.00 0.03 0.01 0.00 0.00 0.01 0.01 0.01 0.01 0.01 0.01 0.01 0.00 0.02 0.01 0.08 0.04 0.00 0.00 0.02 0.05 0.08 0.10 0.12 0.04 0.02 0.02 0.02 0.02 0.04 0.01 0.02
0.00 0.00 0.00 0.00 0.00 0.00 0.00 0.00 0.00 0.00 0.00 0.00 0.01 0.01 0.02 0.00 0.00 0.00 0.00 0.00 0.00 0.00 0.01 0.00 0.00 0.03 0.02 0.04 0.03 0.01 0.00 0.00 0.00 0.02 0.11 0.07 0.04 0.00 0.00 0.01 0.01 0.01 0.01 0.03
0.00 0.00 0.00 0.00 0.00 0.00 0.00 0.00 0.00 0.00 0.00 0.00 0.01 0.02 0.03 0.03 0.00 0.00 0.00 0.00 0.00 0.01 0.02 0.02 0.01 0.01 0.00 0.02 0.09 0.11 0.05 0.03 0.01 0.00 0.00 0.00 0.00 0.00 0.00 0.01 0.01 0.01 0.00 0.01
0.00 0.00 0.00 0.00 0.00 0.00 0.00 0.00 0.00 0.00 0.00 0.00 0.00 0.02 0.03 0.11 0.06 0.00 0.00 0.00 0.00 0.00 0.01 0.01 0.01 0.00 0.01 0.03 0.03 0.08 0.14 0.05 0.01 0.01 0.01 0.00 0.00 0.00 0.00 0.00 0.02 0.02 0.02 0.04
0.00 0.00 0.00 0.00 0.00 0.00 0.00 0.00 0.00 0.00 0.00 0.00 0.00 0.00 0.00 0.00 0.02 0.00 0.00 0.00 0.00 0.00 0.00 0.00 0.00 0.01 0.01 0.02 0.02 0.10 0.32 0.18 0.02 0.01 0.01 0.02 0.01 0.00 0.00 0.01 0.01 0.01 0.01 0.03
0.00 0.00 0.00 0.00 0.00 0.00 0.00 0.00 0.00 0.00 0.00 0.00 0.00 0.00 0.00 0.00 0.00 0.00 0.00 0.00 0.00 0.00 0.00 0.00 0.00 0.00 0.00 0.01 0.01 0.01 0.01 0.02 0.02 0.03 0.01 0.02 0.07 0.06 0.02 0.00 0.00 0.00 0.00 0.01
0.00 0.00 0.00 0.00 0.00 0.01 0.02 0.01 0.00 0.00 0.00 0.00 0.00 0.01 0.00 0.00 0.00 0.00 0.00 0.00 0.00 0.00 0.00 0.00 0.00 0.00 0.00 0.00 0.01 0.01 0.01 0.02 0.01 0.04 0.04 0.03 0.04 0.12 0.14 0.04 0.01 0.00 0.00 0.01
0.00 0.00 0.00 0.00 0.00 0.00 0.00 0.02 0.02 0.01 0.00 0.00 0.00 0.01 0.00 0.00 0.00 0.03 0.04 0.03 0.00 0.00 0.00 0.00 0.00 0.00 0.00 0.00 0.00 0.02 0.03 0.03 0.05 0.09 0.08 0.03 0.05 0.19 0.29 0.17 0.06 0.04 0.03 0.01
0.00 0.00 0.00 0.00 0.00 0.00 0.00 0.00 0.00 0.02 0.01 0.00 0.00 0.00 0.00 0.01 0.00 0.01 0.06 0.01 0.00 0.00 0.00 0.00 0.00 0.00 0.00 0.00 0.00 0.03 0.04 0.07 0.13 0.18 0.24 0.16 0.36 0.63 0.69 0.66 0.68 0.55 0.39 0.29
0.00 0.00 0.00 0.00 0.00 0.00 0.00 0.00 0.00 0.00 0.00 0.00 0.00 0.00 0.00 0.00 0.00 0.00 0.00 0.00 0.00 0.00 0.00 0.00 0.00 0.00 0.02 0.01 0.02 0.02 0.04 0.06 0.07 0.11 0.19 0.23 0.35 0.90 1.27 1.88 1.47 1.40 1.13 0.71
0.00 0.00 0.00 0.00 0.00 0.00 0.00 0.00 0.00 0.01 0.01 0.00 0.00 0.00 0.00 0.02 0.01 0.00 0.00 0.00 0.00 0.00 0.01 0.01 0.02 0.01 0.00 0.01 0.01 0.01 0.01 0.01 0.01 0.05 0.10 0.16 0.18 0.31 0.51 0.97 1.66 1.37 1.57 1.31
0.00 0.00 0.00 0.00 0.00 0.00 0.00 0.00 0.00 0.00 0.02 0.01 0.00 0.00 0.00 0.00 0.01 0.00 0.00 0.00 0.00 0.00 0.01 0.00 0.00 0.00 0.00 0.01 0.01 0.00 0.01 0.02 0.01 0.01 0.02 0.06 0.15 0.20 0.21 0.37 0.62 0.78 0.89 1.07
0.00 0.00 0.00 0.00 0.00 0.00 0.00 0.00 0.00 0.00 0.00 0.00 0.00 0.00 0.00 0.00 0.02 0.04 0.05 0.01 0.00 0.00 0.01 0.00 0.00 0.00 0.00 0.00 0.00 0.01 0.01 0.01 0.01 0.01 0.01 0.04 0.06 0.09 0.14 0.22 0.30 0.40 0.64 0.81
0.01 0.00 0.00 0.00 0.01 0.01 0.00 0.00 0.00 0.00 0.00 0.00 0.01 0.00 0.00 0.02 0.12 0.15 0.19 0.03 0.03 0.04 0.02 0.00 0.00 0.00 0.00 0.00 0.00 0.00 0.00 0.00 0.00 0.00 0.03 0.02 0.02 0.04 0.18 0.24 0.22 0.24 0.28 0.44
0.00 0.00 0.00 0.01 0.02 0.00 0.00 0.00 0.00 0.00 0.00 0.00 0.00 0.00 0.00 0.00 0.02 0.03 0.05 0.04 0.04 0.01 0.00 0.00 0.00 0.00 0.00 0.00 0.00 0.00 0.04 0.07 0.02 0.02 0.02 0.00 0.00 0.01 0.08 0.82 1.56 1.24 0.79 0.42
0.00 0.01 0.00 0.01 0.05 0.02 0.01 0.00 0.01 0.00 0.00 0.00 0.00 0.00 0.00 0.00 0.00 0.00 0.00 0.00 0.00 0.00 0.00 0.02 0.02 0.00 0.00 0.00 0.00 0.01 0.04 0.00 0.01 0.01 0.02 0.02 0.01 0.02 0.03 0.04 0.16 0.59 1.08 1.30
0.03 0.00 0.01 0.01 0.01 0.03 0.05 0.07 0.09 0.08 0.01 0.00 0.00 0.00 0.00 0.00 0.00 0.00 0.00 0.00 0.02 0.02 0.04 0.07 0.11 0.08 0.04 0.01 0.00 0.00 0.00 0.00 0.00 0.00 0.01 0.05 0.06 0.08 0.04 0.12 0.27 0.24 0.15 0.24
0.17 0.08 0.07 0.07 0.09 0.08 0.05 0.06 0.07 0.07 0.02 0.00 0.00 0.00 0.00 0.00 0.00 0.00 0.00 0.00 0.02 0.08 0.11 0.13 0.25 0.27 0.09 0.06 0.02 0.01 0.00 0.01 0.00 0.00 0.00 0.01 0.03 0.05 0.09 0.09 0.13 0.26 0.40 0.37
0.02 0.04 0.03 0.12 0.21 0.30 0.13 0.14 0.14 0.09 0.03 0.01 0.00 0.00 0.00 0.00 0.00 0.00 0.00 0.00 0.09 0.57 0.59 0.33 0.29 0.24 0.26 0.15 0.08 0.06 0.03 0.02 0.02 0.01 0.00 0.00 0.00 0.01 0.03 0.10 0.19 0.25 0.29 0.32